SHIYAN 13 (SY-13)

导读 | 豆包AI

SHIYAN 13(SY-13,试验十三号)是中国研制的技术试验卫星,由中国科学院微小卫星创新研究院抓总研制,于北京时间2022年1月17日在太原卫星发射中心,由长征二号丁运载火箭发射升空,卫星顺利进入预定轨道。 该卫星主要用于开展空间环境探测及相关新技术试验验证,任务中首次采用太原、上海、西安三地联合飞控模式,将提升我国空间环境探测能力,推动航天技术创新发展,这也是中国航天2022年首次发射任务取得圆满成功。

基本信息
目录编号:
51102
目录名称:
SHIYAN 13 (SY-13)
国际标识:
2022-004A
轨道中心:
EARTH
卫星名称:
SHIYAN 13 (SY-13)
卫星全名:
--
卫星状态:
在轨 (已飞行1516 天)
发射日期:
2022-01-17 UTC
国别 :
中国 (CN)
星等 :
--
轨道信息
数据来源 国际轨道数据 AOE轨道数据
星历时间 2026-03-13T08:42:53+0800
10小时前
查看轨道信息
2026-03-13T09:00:00+0800
10小时前
查看轨道信息
半长轴 7204.029km 7203.957km
偏心率 0.0607599 0.0607589
轨道倾角 98.467° 98.467°
近地点辐角 113.168° 113.162°
升交点赤经 95.188° 95.201°
平近点角 253.468° 314.229°
近地点 388.175km 388.115km
远地点 1263.609km 1263.525km
周期 101.420分钟 101.418分钟
每日圈数 14.198406 14.198621
详细信息
使用方式:
暂无
2D轨道图
3D轨道图
轨道高度分析图
轨道倾角分析图
轨道综合分析图
查看轨道综合分析图